www.pogodaiklimat.ru

Погода и климат >> Архив погоды >> Испания >> Касерес


ПОГОДА в Касересе

  • Прогноз погоды в Касересе
  • Монитор погоды в Касересе

АРХИВ ПОГОДЫ в Касересе

Время (UTC), дата Ветер
(напр.,м/с)
 
Видим.   Явления Облачность Т
(С)
Тd
(С)
f
(%)
Тe
(С)
Тes
(С)
Комфортность P
(гПа)
Po
(гПа)
Тmin
(С)
Tmax
(С)
R
(мм)
R24
(мм)
S
(см)
13 14.07 СЗ 5 20 км н/о +31.6 +11.9 30 +32 +32 жарко 1011.7 968.7
14 14.07 С 4 20 км н/о +33.2 +11.7 27 +33 +33 жарко 1011.0 968.3
15 14.07 СЗ 4 20 км н/о +34.4 +11.5 25 +34 +34 очень
жарко
1010.4 967.8
16 14.07 СЗ 4 20 км н/о +34.4 +10.9 24 +34 +34 очень
жарко
1010.0 967.5
17 14.07 С 4 20 км н/о +34.5 +11.6 25 +34 +34 очень
жарко
1009.6 967.1
18 14.07 СЗ 3 20 км н/о +34.8 +11.2 24 +34 +34 очень
жарко
1009.6 967.1 +35.1
19 14.07 З 3 20 км н/о +33.9 +11.1 25 +33 +33 жарко 1009.6 967.0
20 14.07 З 4 20 км н/о +31.0 +12.4 32 +32 +32 жарко 1010.3 967.3
21 14.07 З 5 20 км н/о +28.7 +15.6 45 +32 +32 душно 1011.2 967.9
22 14.07 ЮЗ 7 20 км н/о +26.6 +15.9 52 +30 +30 душно 1011.6 968.0
23 14.07 ЮЗ 7 20 км н/о +25.4 +15.1 53 +28 +28 жарко 1012.1 968.3
00 15.07 ЮЗ 7 20 км н/о +24.3 +15.2 57 +27 +27 жарко 1012.5 968.5
01 15.07 ЮЗ 5 20 км н/о +24.3 +14.7 55 +27 +27 жарко 1012.1 968.1
02 15.07 З 5 20 км н/о +23.8 +14.8 57 +27 +27 жарко 1012.1 968.0
03 15.07 ЮЗ 4 20 км н/о +23.0 +14.8 60 +27 +27 душно 1012.1 967.9
04 15.07 ЮЗ 3 20 км н/о +22.1 +14.7 63 +25 +25 комфорт 1011.9 967.6
05 15.07 З 6 20 км н/о +21.5 +14.6 65 +25 +25 комфорт 1012.5 968.1
06 15.07 ЮЗ 5 20 км н/о +21.7 +15.1 66 +25 +25 комфорт 1012.7 968.3 +21.3
07 15.07 ЮЗ 3 20 км н/о +23.7 +15.5 60 +27 +27 жарко 1012.6 968.5
09 15.07 СЗ 2 18 км ясно +27.3 +15.3 48 +30 +41 душно 1012.4 968.8
10 15.07 З 2 20 км н/о +29.1 +15.6 44 +32 +32 душно 1012.0 968.7
11 15.07 З 2 20 км н/о +31.3 +14.9 37 +33 +33 жарко 1011.6 968.6
12 15.07 ЮЗ 3 20 км ясно +33.1 +14.7 33 +35 +53 опасность
солнечного
удара
1011.1 968.4 0.0
13 15.07 ЮЗ 2 20 км н/о +34.3 +14.7 31 +36 +36 душно 1010.2 967.7
14 15.07 З 3 20 км н/о +35.1 +14.9 30 +37 +37 очень
душно
1009.8 967.4
15 15.07 З 3 20 км н/о +36.0 +13.5 26 +36 +36 очень
жарко
1009.2 966.9
16 15.07 ЮЗ 3 20 км н/о +35.9 +12.2 24 +36 +36 очень
жарко
1008.9 966.6
17 15.07 ЮЗ 5 20 км н/о +35.6 +12.5 25 +36 +36 очень
жарко
1008.5 966.2
18 15.07 Ю 4 20 км н/о +35.0 +12.6 26 +35 +35 очень
жарко
1008.7 966.3 +36.3
19 15.07 ЮЗ 4 20 км н/о +33.5 +13.5 30 +34 +34 очень
жарко
1009.1 966.5
20 15.07 ЮЗ 4 20 км н/о +31.5 +12.3 31 +32 +32 жарко 1009.8 966.9
21 15.07 З 3 20 км н/о +30.0 +11.5 32 +31 +31 жарко 1010.7 967.5
22 15.07 З 4 20 км н/о +27.7 +14.0 43 +30 +30 жарко 1011.4 967.9
23 15.07 З 5 20 км н/о +27.1 +12.7 41 +29 +29 жарко 1011.6 968.0
00 16.07 З 6 20 км н/о +26.1 +12.9 44 +28 +28 жарко 1011.4 967.7
01 16.07 ЮЗ 6 20 км н/о +25.4 +13.3 47 +27 +27 жарко 1011.2 967.4
02 16.07 ЮЗ 2 20 км н/о +24.3 +13.2 50 +26 +26 жарко 1011.4 967.4
03 16.07 СВ 1 20 км н/о +23.5 +13.1 52 +26 +26 жарко 1011.4 967.3
04 16.07 Ю 3 20 км н/о +23.4 +12.1 49 +26 +26 жарко 1011.2 967.1
05 16.07 ЮВ 1 20 км н/о +21.7 +12.8 57 +24 +24 комфорт 1012.1 967.7
06 16.07 В 2 20 км н/о +21.0 +13.7 63 +25 +25 комфорт 1012.5 968.0 +20.5
07 16.07 С 2 20 км н/о +21.7 +14.1 62 +25 +25 комфорт 1013.1 968.7
08 16.07 ЮЗ 1 20 км н/о +24.9 +14.4 52 +27 +27 жарко 1012.5 968.6
09 16.07 ЮЗ 4 20 км н/о +27.2 +14.2 45 +29 +29 жарко 1012.1 968.5
10 16.07 ЮЗ 4 19 км н/о +28.6 +11.6 35 +29 +29 жарко 1011.9 968.5
11 16.07 З 3 20 км н/о +30.5 +12.4 33 +31 +31 жарко 1011.4 968.3
12 16.07 З 4 20 км ясно +31.5 +13.3 33 +33 +47 жарко 1010.9 968.0
13 16.07 ЮЗ 5 20 км н/о +32.3 +13.0 31 +33 +33 жарко 1010.4 967.6
14 16.07 ЮЗ 4 20 км н/о +33.6 +12.0 27 +34 +34 очень
жарко
1009.8 967.2
15 16.07 Ю 4 20 км н/о +34.1 +10.0 23 +33 +33 жарко 1009.4 966.8
16 16.07 ЮЗ 4 20 км н/о +33.6 +9.6 23 +33 +33 жарко 1009.1 966.5
17 16.07 ЮЗ 5 20 км н/о +33.3 +10.0 24 +33 +33 жарко 1009.0 966.3
18 16.07 З 4 20 км н/о +32.5 +9.9 25 +32 +32 жарко 1009.2 966.4 +34.4
19 16.07 З 5 20 км н/о +30.5 +7.6 24 +29 +29 жарко 1009.6 966.5
20 16.07 З 3 20 км н/о +28.2 +12.9 39 +30 +30 жарко 1010.4 967.0
21 16.07 ЮЗ 4 20 км н/о +26.4 +12.5 42 +28 +28 жарко 1011.4 967.7
22 16.07 З 3 20 км н/о +24.0 +15.2 58 +27 +27 жарко 1011.9 967.9
23 16.07 З 5 20 км н/о +22.8 +15.1 62 +27 +27 душно 1012.2 968.0
00 17.07 ЮЗ 4 20 км н/о +22.2 +15.3 65 +26 +26 душно 1012.1 967.8
01 17.07 ЮЗ 4 20 км н/о +21.3 +15.6 70 +25 +25 комфорт 1012.3 967.9
02 17.07 ЮЗ 5 20 км н/о +19.1 +14.8 76 +20 +20 1012.0 967.3
03 17.07 СВ 3 20 км н/о +18.6 +14.7 78 +20 +20 1012.4 967.6
04 17.07 Ю 2 15 км н/о +16.8 +14.4 86 +17 +17 1012.8 967.7
05 17.07 СВ 2 10 км н/о +16.0 +14.5 91 +16 +16 1013.3 968.0
06 17.07 З 2 10 км н/о +16.4 +14.8 90 +17 +17 1014.0 968.8 +16.0
07 17.07 ЮЗ 2 12 км н/о +16.8 +14.8 88 +17 +17 1014.6 969.4
08 17.07 Ю 3 13 км н/о +17.4 +14.9 85 +17 +17 1015.0 969.9
09 17.07 Ю 3 17 км н/о +18.6 +14.9 79 +20 +20 1015.2 970.2
10 17.07 ЮЗ 2 16 км н/о +19.4 +15.1 76 +22 +22 комфорт 1015.4 970.6
11 17.07 Ю 4 20 км н/о +21.3 +14.9 67 +24 +24 комфорт 1015.3 970.7
12 17.07 З 4 15 км 3/3 300 м
[Cu hum]
+22.9 +15.2 62 +27 +37 душно 1014.8 970.5
13 17.07 З 4 20 км н/о +24.8 +15.1 55 +28 +28 жарко 1014.2 970.2
14 17.07 ЮЗ 3 20 км н/о +26.3 +15.0 50 +29 +29 жарко 1013.4 969.7
15 17.07 З 4 20 км н/о +27.8 +14.4 44 +30 +30 жарко 1012.7 969.2
16 17.07 СЗ 3 20 км н/о +28.7 +13.8 40 +31 +31 жарко 1012.2 968.8
17 17.07 ЮЗ 2 20 км н/о +30.2 +11.7 32 +31 +31 жарко 1011.4 968.2 0.0
18 17.07 З 2 20 км дымка н/о +30.9 +10.8 29 +31 +31 жарко 1011.0 967.9 +30.9 0.0
19 17.07 З 2 20 км н/о +30.5 +11.9 32 +31 +31 жарко 1011.1 968.0
20 17.07 ЮЗ 4 20 км н/о +28.3 +14.5 43 +31 +31 душно 1011.5 968.1
21 17.07 ЮЗ 4 20 км н/о +27.0 +14.7 47 +30 +30 душно 1012.5 968.9
22 17.07 ЮЗ 4 20 км н/о +25.8 +15.5 53 +29 +29 душно 1013.1 969.3
23 17.07 ЮЗ 4 20 км н/о +24.6 +15.5 57 +28 +28 душно 1013.4 969.4
00 18.07 З 4 20 км н/о +24.0 +15.2 58 +27 +27 жарко 1013.7 969.6
01 18.07 З 5 20 км н/о +23.1 +15.2 61 +27 +27 душно 1013.4 969.2
02 18.07 ЮЗ 5 20 км н/о +22.3 +14.7 62 +26 +26 жарко 1013.1 968.8
03 18.07 З 4 20 км н/о +22.0 +14.6 63 +25 +25 комфорт 1013.0 968.6
04 18.07 З 2 20 км н/о +21.7 +14.1 62 +25 +25 комфорт 1012.9 968.5
05 18.07 З 2 20 км н/о +21.5 +13.7 61 +24 +24 комфорт 1013.0 968.6
06 18.07 З 2 20 км н/о +21.2 +13.6 62 +24 +24 комфорт 1013.5 969.0 +20.9
07 18.07 З 2 20 км н/о +23.0 +13.7 56 +26 +26 жарко 1013.7 969.4
08 18.07 СЗ 2 20 км н/о +24.4 +13.3 50 +27 +27 жарко 1014.0 969.9
09 18.07 СЗ 2 20 км н/о +27.1 +13.4 43 +29 +29 жарко 1013.6 969.9
10 18.07 СЗ 1 20 км н/о +28.9 +12.7 37 +30 +30 жарко 1013.4 970.0
11 18.07 В 2 20 км н/о +31.4 +12.2 31 +32 +32 жарко 1012.8 969.7
12 18.07 СЗ 3 22 км ясно +32.8 +11.9 28 +33 +51 опасность
солнечного
удара
1012.1 969.3
13 18.07 С 2 20 км н/о +34.7 +11.8 25 +34 +34 очень
жарко
1011.2 968.7
14 18.07 З 2 20 км н/о +35.4 +11.8 24 +35 +35 очень
жарко
1010.5 968.1 0.0
15 18.07 СВ 2 20 км н/о +35.7 +10.7 22 +35 +35 очень
жарко
1010.0 967.6 0.0
16 18.07 ЮВ 2 20 км н/о +34.8 +9.9 22 +34 +34 очень
жарко
1009.6 967.1
17 18.07 Ю 1 20 км н/о +36.7 +9.3 19 +35 +35 очень
жарко
1009.0 966.8
18 18.07 СЗ 3 20 км дымка н/о +35.9 +9.4 20 +35 +35 очень
жарко
1009.0 966.7 +36.7 0.0
19 18.07 З 2 20 км н/о +34.9 +10.7 23 +34 +34 очень
жарко
1009.2 966.8
20 18.07 ЮЗ 2 20 км н/о +30.8 +11.2 30 +31 +31 жарко 1010.0 967.0
21 18.07 Ю 4 20 км н/о +30.1 +12.1 33 +31 +31 жарко 1010.7 967.6
22 18.07 З 4 20 км н/о +29.6 +9.2 28 +29 +29 жарко 1011.7 968.4
23 18.07 З 4 20 км н/о +28.0 +11.1 35 +29 +29 жарко 1011.7 968.2
00 19.07 З 3 20 км н/о +27.3 +10.9 36 +28 +28 жарко 1011.8 968.2
01 19.07 З 3 20 км н/о +27.2 +9.5 33 +28 +28 жарко 1011.8 968.2
02 19.07 З 2 20 км н/о +26.2 +8.7 33 +26 +26 жарко 1011.7 967.9
03 19.07 ЮЗ 2 20 км н/о +24.6 +9.7 39 +25 +25 комфорт 1011.7 967.7
04 19.07 ЮЗ 2 19 км н/о +23.1 +9.8 43 +25 +25 комфорт 1011.8 967.6
05 19.07 ЮЗ 2 20 км н/о +22.3 +10.1 46 +24 +24 комфорт 1012.1 967.8
06 19.07 Ю 1 20 км н/о +22.4 +10.8 48 +24 +25 комфорт 1012.4 968.1 +22.0
07 19.07 СЗ 1 20 км н/о +25.5 +12.0 43 +27 +27 жарко 1012.3 968.4
08 19.07 СВ 1 20 км н/о +28.5 +11.1 34 +29 +29 жарко 1012.2 968.8
09 19.07 З 1 20 км н/о +30.2 +11.2 31 +31 +31 жарко 1011.8 968.6
10 19.07 Ю 2 20 км н/о +33.8 +10.4 24 +33 +33 жарко 1011.1 968.4
11 19.07 ЮЗ 4 20 км н/о +35.2 +10.3 22 +34 +34 очень
жарко
1010.7 968.2
12 19.07 Ю 4 22 км 1/1 300 м
[Cu hum]
+36.5 +9.2 19 +35 +47 очень
жарко
1010.2 967.9
13 19.07 Ю 4 20 км н/о +37.4 +9.9 19 +36 +36 очень
жарко
1009.4 967.3
14 19.07 ЮВ 4 20 км н/о +37.7 +8.5 17 +36 +36 очень
жарко
1008.6 966.5
15 19.07 ЮЗ 4 20 км н/о +37.9 +8.6 17 +36 +36 очень
жарко
1008.1 966.1
16 19.07 ЮЗ 5 20 км н/о +38.1 +7.9 16 +36 +36 очень
жарко
1007.7 965.7
17 19.07 ЮЗ 4 20 км н/о +37.7 +6.6 15 +35 +35 очень
жарко
1007.3 965.3
18 19.07 З 3 20 км н/о +37.7 +5.6 14 +35 +35 очень
жарко
1007.3 965.2 +38.4
19 19.07 СЗ 5 20 км н/о +35.4 +9.7 21 +34 +34 очень
жарко
1007.6 965.3
20 19.07 СЗ 4 20 км н/о +33.2 +9.3 23 +32 +32 жарко 1008.4 965.7
21 19.07 СЗ 5 20 км н/о +31.3 +9.5 26 +31 +31 жарко 1009.4 966.4
22 19.07 СЗ 3 20 км н/о +29.7 +9.8 29 +30 +30 жарко 1010.0 966.8
23 19.07 З 3 20 км н/о +28.7 +11.3 34 +29 +29 жарко 1010.1 966.8
00 20.07 З 2 20 км н/о +28.1 +10.3 33 +29 +29 жарко 1010.4 967.0
01 20.07 З 3 20 км н/о +27.1 +10.7 36 +28 +28 жарко 1010.7 967.1
02 20.07 З 3 20 км н/о +26.0 +11.4 40 +27 +27 жарко 1010.8 967.1
03 20.07 З 2 20 км н/о +24.6 +10.8 42 +26 +26 жарко 1011.1 967.1
05 20.07 ЮЗ 5 20 км н/о +22.2 +10.3 47 +24 +24 комфорт 1011.7 967.4
06 20.07 ЮЗ 6 20 км н/о +21.8 +10.3 48 +24 +24 комфорт 1012.3 967.9 +21.6
07 20.07 З 3 20 км н/о +24.3 +10.9 43 +26 +26 жарко 1012.8 968.7
08 20.07 З 3 20 км н/о +26.3 +11.6 40 +28 +28 жарко 1013.0 969.2
09 20.07 С 2 20 км н/о +28.8 +11.8 35 +30 +30 жарко 1012.7 969.3
10 20.07 С 2 20 км н/о +31.0 +11.9 31 +31 +31 жарко 1012.3 969.2
11 20.07 З 3 20 км н/о +33.3 +10.6 25 +33 +33 жарко 1012.0 969.2
12 20.07 ЮЗ 4 20 км н/о +34.8 +10.6 23 +34 +34 очень
жарко
1011.6 969.0
13 20.07 ЮЗ 4 20 км н/о +35.6 +7.6 18 +34 +34 очень
жарко
1011.4 968.9
14 20.07 ЮЗ 4 20 км н/о +36.7 +5.8 15 +34 +34 очень
жарко
1010.9 968.6 0.0
15 20.07 З 4 20 км н/о +37.2 +6.2 15 +35 +35 очень
жарко
1010.6 968.3 0.0
16 20.07 З 4 20 км н/о +37.3 +5.3 14 +35 +35 очень
жарко
1010.4 968.2
17 20.07 З 3 20 км н/о +37.2 +5.2 14 +34 +34 очень
жарко
1010.0 967.8
18 20.07 З 3 20 км дымка н/о +37.0 +5.1 14 +34 +34 очень
жарко
1010.2 967.9 +37.8
19 20.07 З 2 20 км н/о +36.2 +4.5 14 +33 +33 жарко 1010.6 968.2
20 20.07 З 3 20 км н/о +32.4 +7.3 21 +31 +31 жарко 1011.6 968.7
21 20.07 З 3 20 км н/о +30.9 +11.8 31 +31 +31 жарко 1012.9 969.8
22 20.07 З 3 20 км н/о +29.1 +11.6 34 +30 +30 жарко 1013.6 970.2
23 20.07 З 4 20 км н/о +27.3 +13.6 43 +29 +29 жарко 1014.3 970.6
00 21.07 З 3 20 км н/о +25.7 +13.9 48 +28 +28 жарко 1014.7 970.8
01 21.07 З 3 20 км н/о +25.2 +14.0 50 +28 +28 жарко 1014.9 970.9
02 21.07 З 3 20 км н/о +24.3 +13.8 52 +27 +27 жарко 1014.9 970.8
03 21.07 З 2 20 км н/о +24.1 +14.2 54 +27 +27 жарко 1014.8 970.7
04 21.07 З 2 19 км н/о +22.9 +13.9 57 +26 +26 жарко 1015.1 970.8
05 21.07 З 2 19 км н/о +22.0 +13.6 59 +25 +25 комфорт 1015.5 971.0
06 21.07 ЮЗ 3 9000 м н/о +21.1 +13.5 62 +24 +24 комфорт 1015.9 971.3 +21.1
07 21.07 ЮВ 3 10 км н/о +23.4 +13.3 53 +27 +27 душно 1016.2 971.9
08 21.07 С 1 20 км н/о +25.5 +13.7 48 +28 +28 жарко 1016.2 972.2
09 21.07 С 1 20 км н/о +27.8 +13.7 42 +30 +30 жарко 1015.8 972.1
10 21.07 СВ 2 20 км н/о +30.5 +13.7 36 +32 +32 жарко 1015.7 972.4
11 21.07 СЗ 3 20 км н/о +32.5 +12.7 30 +33 +33 жарко 1015.3 972.3
12 21.07 З 3 20 км н/о +34.6 +9.8 22 +34 +34 очень
жарко
1014.7 972.0

 

Местоположение метеостанции Касерес (Испания): широта 39.47 долгота -6.33 высота над уровнем моря 405 м.

В архиве по умолчанию представлена погода в Касересе за последнюю неделю. Архивные данные за месяц целиком и за предыдущие месяцы, начиная с января 2011 года, Вы можете получить, выбрав интересующий диапазон дат из раскрывающегося списка и нажав кнопку "Ввод!".


*Определитесь, кто Вы:
робот инопланетянин человек

Внимание! Время в таблицах - всемирное. Для получения местного времени необходимо прибавить поправку, которая равна 1 ч.

Смотрите также архив погоды в соседних городах и на ближайших метеорологических станциях:

Погода в Трухильо (Испания) (41 км)
Погода в Мериде (Испания) (61 км)
Погода в Кориа (Испания) (62 км)
Погода в Пласенсии (Испания) (67 км)
Погода в Дон Бенито (Испания) (69 км)
Погода в Бадахосе (Испания) (79 км)
Погода в Валенсия-де-Алькантаре (Испания) (79 км)
Погода в Навальмораль-де-ла-Мате (Испания) (83 км)
Погода в Порталегре (Португалия) (96 км)
Погода в Кастело Бранко (Португалия) (106 км)

Пояснения к столбцам:

Ветер - указаны скорость ветра в м/с - средняя за 10 мин, порывы в срок и между сроками (в фигурных скобках) и направление, откуда дует ветер: С - северный, СВ - северо-восточный, В - восточный, ЮВ - юго-восточный, Ю - южный, ЮЗ - юго-западный, З - западный, СЗ - северо-западный.
Видимость - горизонтальная дальность видимости в метрах или километрах. При видимости от 1 до 10 км при отсутствии осадков обычно наблюдается дымка, при ухудшении видимости до 1 км и менее - туман. В сухую погоду видимость может ухудшаться дымом, пылью или мглою.
Явления - указаны атмосферные явления, наблюдавшиеся в срок или в последний час перед сроком; фигурными скобками обозначены явления, наблюдавшиеся между сроками (за 1-3 часа до срока); квадратными скобками обозначены град или гололедные отложения с указанием их диаметра в мм.
Облачность - указаны через наклонную черту общая и нижняя облачность в баллах и высота нижней границы облаков в метрах; квадратными скобками обозначены формы облаков: Ci - перистые, Cs - перисто-слоистые, Cc - перисто-кучевые, Ac - высококучевые, As - высокослоистые, Sc - слоисто-кучевые, Ns - слоисто-дождевые, Cu - кучевые, Cb - кучево-дождевые. Подробнее классификацию облаков см. в Атласе облаков (PDF).
T - Температура воздуха - температура, измеренная на высоте 2 м над землей.
Td - Температура точки росы - температура, при понижении до которой содержащийся в воздухе водяной пар достигнет насыщения.
f - Относительная влажность воздуха - влажноcть воздуха, измеренная на высоте 2 м над землей.
Te - Эффективная температура - температура, которую ощущает одетый по сезону человек в тени. Характеристика душности погоды. При расчете учитывается влияние влажности воздуха и скорости ветра на теплоощущения человека.
Tes - Эффективная температура на солнце - температура, которую ощущает человек, с поправкой на солнечный нагрев. Характеристика знойности погоды. Зависит от высоты солнца над горизонтом, облачности и скорости ветра. Ночью, в пасмурную погоду, а также при ветре 12 м/с и более поправка равна нулю.
P - Атмосферное давление - приведенное к уровню моря атмосферное давление.
Po - Атмосферное давление - измеренное на уровне метеостанции атмосферное давление.
Tmin - Минимальная температура - минимум температуры воздуха на высоте 2 м над землей.
Tmax - Максимальная температура - максимум температуры воздуха на высоте 2 м над землей.
R - Количество осадков - Количество выпавших осадков за период времени, мм. При наведении курсора мыши на число - период времени, за который выпало указанное количество осадков.
R24 - Количество осадков - Количество выпавших осадков за 24 часа, мм.
S - Снежный покров - Высота снежного покрова, см. При наведении курсора мыши на число - состояние снежного покрова и степень покрытия местности в баллах.